Tracking 29892 objects as of 21-Nov-2024
HD Live streaming from Space Station
objects crossing your sky now

AETHER-1

Track AETHER-1 now!
10-day predictions


NORAD ID: 58281
Int'l Code: 2023-174AB
Perigee: 490.8 km
Apogee: 504.3 km
Inclination: 97.4 °
Period: 94.4 minutes
Semi major axis: 6868 km
RCS: Unknown
Launch date: November 11, 2023
Source: (CAN)
Launch site: AIR FORCE WESTERN TEST RANGE (AFWTR)
Your satellite tracking list
Your tracking list is empty




NASA's NSSDC Master Catalog

Two Line Element Set (TLE):
1 58281U 23174AB  24325.25444942  .00009076  00000-0  36479-3 0  9995
2 58281  97.4440  38.8717 0009833  48.5769 311.6312 15.25114842 57473
Source of the keplerian elements: AFSPC